Zurück zum Katalog

SL-8 DEB

AktivLEO
NORAD 21209·DEBRIS·🇷🇺 Russia

Gestartet Feb 12, 1991 von Plesetsk Cosmodrome

Loading…

Nächste Überflüge (nächste 24 Stunden)

TLE

AktuellSource: Space-Track

Epoche: Sep 14, 2026, 14:09 UTC

1 21209U 91009BC  26257.58980653  .00000021  00000-0  31725-3 0  9993
2 21209  74.0401 319.2220 0134280  22.5554  46.6762 12.23761969584231

Verfolge SL-8 DEB in Echtzeit mit AllMySat

Download on the App Store